Location: Baix
(44.7118°N, 4.7648°E)
Time: 03:39:03
(UTC+00:00)

USA 215 - Pass Details

Date: 07 August 2020
Orbit: 1102 x 1106 km, 123.0° (Epoch: 08 August)

Event Time Altitude Azimuth Distance (km) Brightness Sun altitude
Rises 01:40:06 0° 51° (NE) 3,927 7.3 -23.7°
Reaches altitude 10° 01:42:36 10° 54° (NE) 2,966 6.4 -23.5°
Maximum altitude 01:49:09 70° 138° (SE) 1,165 3.2 -22.9°
Enters shadow 01:51:28 42° 208° (SSW) 1,518 3.5 -22.7°
